カタログに戻る

STARLINK-32850

運用中通信VLEO
NORAD 62950·PAYLOAD·🇺🇸 United States

打ち上げ Feb 11, 2025 から Vandenberg Space Force Base

Loading…

次のパス (今後24時間)

TLE

最新Source: CelesTrak SupGP

元期: Sep 15, 2026, 03:20 UTC

1 62950C 25029C   26258.13937500 -.00029404  00000+0 -94579-3 0  2586
2 62950  53.1591  71.0398 0001282  86.9457 269.6087 15.31709164    14

AllMySatでSTARLINK-32850をリアルタイム追跡

Download on the App Store